Location: Muenchen
(48.1800°N, 11.5800°E)
Time: 21:47:04
(UTC+01:00)

Iridium 36 - Visible Passes

Search period start: 28 February 2015 00:00
Search period end: 10 March 2015 00:00
Orbit: 772 x 775 km, 86.4° (Epoch: 28 February)

Date Brightness Start Highest point End Pass type
(mag) Time Alt. Az. Time Alt. Az. Time Alt. Az.
28 Feb 8.0 20:43:45 10° NNE 20:43:49 10° NNE 20:43:49 10° NNE visible
28 Feb 8.3 22:23:47 10° NNW 22:24:14 12° NNW 22:24:14 12° NNW visible
01 Mar 8.0 21:49:03 10° N 21:49:57 15° N 21:49:57 15° N visible
02 Mar 7.7 21:14:31 10° N 21:15:42 17° N 21:15:42 17° N visible
02 Mar 8.5 22:55:51 10° NNW 22:56:06 11° NNW 22:56:06 11° NNW visible
03 Mar 7.6 20:40:15 10° NNE 20:41:27 16° NNE 20:41:27 16° NNE visible
03 Mar 8.1 22:20:42 10° NNW 22:21:51 16° NNW 22:21:51 16° NNW visible
04 Mar 7.6 20:06:24 10° NNE 20:07:13 13° NE 20:07:13 13° NE visible
04 Mar 7.6 21:45:51 10° N 21:47:37 22° N 21:47:37 22° N visible
05 Mar 7.2 21:11:14 10° N 21:13:25 25° N 21:13:25 25° N visible
05 Mar 8.4 22:53:02 10° NW 22:53:49 13° NW 22:53:49 13° NW visible
06 Mar 7.0 20:36:50 10° N 20:39:13 24° NNE 20:39:13 24° NNE visible
06 Mar 7.8 22:17:40 10° NNW 22:19:38 20° NW 22:19:38 20° NW visible
07 Mar 7.1 20:02:44 10° NNE 20:05:03 19° NE 20:05:03 19° NE visible
07 Mar 7.1 21:42:41 10° NNW 21:45:28 31° NNW 21:45:28 31° NNW visible
08 Mar 7.4 19:29:21 10° NE 19:30:54 13° ENE 19:30:54 13° ENE visible
08 Mar 6.4 21:07:58 10° N 21:11:19 41° N 21:11:19 41° N visible
08 Mar 8.3 22:50:27 10° NW 22:51:44 13° WNW 22:51:44 13° WNW visible
09 Mar 6.2 20:33:27 10° N 20:37:11 39° NE 20:37:11 39° NE visible
09 Mar 7.7 22:14:43 10° NNW 22:17:37 22° WNW 22:17:37 22° WNW visible
